Location: Arbon
(43.0005°N, 0.7472°E)
Time: 01:36:06
(UTC+00:00)

S-56A Canister/Altair - Pass Details

Date: 07 December 2020
Orbit: 633 x 2499 km, 38.9° (Epoch: 19 January)

Event Time Altitude Azimuth Distance (km) Brightness Sun altitude
Rises 18:55:54 0° 263° (W) 6,041 13.4 -27.3°
Reaches altitude 10° 19:00:08 10° 262° (W) 4,885 12.6 -28.0°
Maximum altitude 19:13:23 72° 182° (S) 1,865 9.3 -30.4°
Enters shadow 19:15:59 55° 120° (ESE) 1,948 9.1 -30.9°
